STARLINK-34628

Last updated on Tue Aug 19 2025 00:02:06 GMT+0000 (Coordinated Universal Time)

1 64864U 25152Y 25230.56083553 .00036907 00000+0 67670-3 0 9993 2 64864 97.6032 84.2137 0001362 73.6774 286.4626 15.49208006 4786
UTC large
Height (km)
Speed (km/s)
/
Latitude / Longitude
Inclination (degrees)
Orbital Period (minutes)
Azimuth
Elevation
Range (km)
Doppler Factor

Next 0 passes for location: London (51.5072 / 0.1276)

Sorry there are no passes over London.
STARLINK-34628